Temperature
1 -0 -1 -2 -3 -3 -4 -5 -5 -5 -5 -6 -6 -6 -6 -6 -6 -6 -6 -6 -6 -7 -7 -7 -7 -6 -5 -5 -3 -2 -1 -0 1 2 3 4 6 8 10 12 13 13 14
-0 -1 -2 -2 -3 -4 -5 -5 -6 -6 -6 -6 -7 -7 -7 -6 -6 -7 -7 -7 -7 -7 -8 -8 -7 -7 -6 -6 -5 -3 -2 -1 0 1 2 3 5 6 8 10 12 13 14
-1 -2 -2 -3 -4 -4 -5 -5 -6 -6 -7 -7 -7 -7 -7 -7 -7 -7 -7 -8 -8 -8 -8 -8 -8 -8 -7 -7 -6 -4 -3 -2 -0 1 2 3 4 5 7 9 10 12 13
-1 -2 -3 -3 -4 -4 -5 -6 -6 -7 -7 -7 -8 -8 -8 -8 -8 -8 -8 -8 -8 -8 -9 -9 -9 -9 -8 -7 -7 -5 -4 -3 -1 0 1 2 3 4 6 7 9 11 12
-2 -2 -3 -3 -4 -5 -5 -6 -7 -8 -8 -8 -9 -9 -9 -8 -8 -8 -8 -8 -9 -9 -9 -9 -10 -9 -9 -8 -7 -6 -5 -3 -2 -0 1 2 3 4 5 6 8 10 11
-2 -2 -3 -3 -4 -5 -6 -7 -7 -8 -8 -9 -9 -9 -9 -9 -8 -9 -9 -9 -9 -9 -9 -10 -10 -10 -10 -9 -8 -7 -5 -4 -2 -1 1 2 3 3 4 5 7 9 10
-2 -3 -3 -4 -5 -5 -6 -7 -8 -9 -9 -9 -10 -10 -10 -9 -9 -9 -10 -10 -9 -9 -10 -10 -10 -10 -10 -9 -9 -7 -6 -4 -3 -1 0 1 2 3 4 5 6 8 9
-2 -3 -3 -4 -5 -6 -7 -8 -9 -9 -9 -10 -11 -11 -11 -11 -10 -10 -10 -10 -10 -10 -10 -10 -10 -10 -10 -9 -9 -8 -7 -5 -3 -2 -0 1 2 3 3 4 5 7 8
-2 -3 -4 -4 -5 -6 -7 -8 -9 -9 -10 -10 -11 -11 -12 -11 -11 -11 -10 -10 -10 -10 -10 -10 -10 -10 -10 -9 -9 -8 -7 -6 -4 -2 -1 0 1 2 3 4 5 6 8
-2 -3 -4 -5 -6 -7 -8 -8 -9 -10 -10 -11 -11 -11 -11 -12 -12 -12 -11 -11 -11 -11 -11 -11 -10 -10 -10 -9 -9 -8 -7 -6 -5 -3 -2 -0 1 2 3 3 4 5 7
-2 -3 -4 -5 -6 -7 -8 -9 -9 -10 -10 -11 -11 -11 -11 -11 -12 -12 -12 -12 -11 -11 -11 -11 -10 -10 -10 -9 -9 -8 -7 -6 -5 -4 -3 -1 -0 1 2 3 4 5 6
-2 -3 -4 -5 -6 -7 -8 -9 -9 -10 -10 -11 -11 -11 -11 -12 -12 -12 -13 -13 -12 -12 -11 -11 -11 -10 -10 -9 -9 -8 -7 -6 -5 -4 -3 -2 -1 -0 1 2 3 4 6
-2 -3 -4 -5 -6 -7 -8 -9 -9 -10 -10 -11 -11 -11 -11 -11 -11 -12 -13 -13 -13 -12 -12 -11 -11 -10 -10 -9 -9 -8 -8 -7 -6 -5 -4 -3 -2 -1 0 1 2 4 5
-2 -3 -4 -5 -6 -7 -8 -9 -9 -9 -10 -10 -10 -10 -11 -11 -11 -12 -12 -13 -13 -13 -12 -12 -11 -11 -10 -10 -9 -9 -8 -7 -6 -5 -4 -3 -3 -2 -1 0 1 3 4
-3 -3 -4 -5 -6 -7 -8 -9 -9 -9 -9 -10 -10 -10 -10 -10 -11 -11 -12 -12 -13 -13 -12 -12 -11 -11 -10 -10 -10 -9 -9 -8 -7 -6 -5 -4 -3 -2 -2 -1 1 2 3
-3 -4 -4 -5 -6 -7 -8 -8 -9 -9 -9 -9 -9 -10 -10 -10 -11 -11 -11 -12 -12 -13 -13 -12 -12 -11 -11 -10 -10 -10 -9 -8 -7 -6 -5 -4 -4 -3 -2 -1 -0 1 2
-3 -4 -4 -5 -6 -7 -8 -8 -9 -9 -9 -9 -9 -9 -10 -10 -11 -11 -11 -12 -12 -12 -13 -12 -12 -11 -11 -10 -10 -10 -9 -8 -7 -6 -6 -5 -4 -4 -3 -2 -1 0 2
-3 -4 -4 -5 -6 -6 -7 -8 -8 -8 -9 -9 -9 -9 -9 -10 -10 -11 -11 -12 -12 -12 -12 -12 -12 -11 -11 -11 -11 -10 -10 -9 -8 -7 -6 -5 -4 -4 -3 -2 -1 -0 1
-3 -4 -4 -5 -5 -6 -7 -8 -8 -8 -8 -8 -9 -9 -10 -10 -10 -11 -11 -11 -11 -11 -11 -12 -12 -11 -11 -11 -11 -11 -10 -9 -8 -7 -6 -5 -4 -4 -3 -2 -1 -0 1
-3 -3 -4 -5 -5 -6 -7 -7 -8 -8 -8 -8 -9 -9 -10 -10 -10 -11 -11 -11 -11 -11 -11 -11 -12 -12 -12 -11 -11 -11 -11 -9 -8 -7 -6 -5 -4 -4 -3 -2 -1 -0 1
-3 -4 -4 -4 -5 -6 -6 -7 -8 -8 -8 -8 -9 -9 -10 -10 -11 -11 -11 -11 -11 -11 -11 -11 -12 -12 -12 -12 -12 -12 -11 -10 -8 -7 -6 -5 -5 -4 -3 -2 -1 -0 1
-3 -4 -4 -4 -5 -5 -6 -7 -9 -8 -8 -9 -9 -9 -10 -10 -11 -11 -11 -11 -11 -11 -11 -11 -12 -12 -12 -12 -12 -12 -12 -11 -11 -8 -8 -6 -5 -4 -2 -2 -1 0 1
-3 -3 -4 -4 -5 -5 -6 -8 -8 -8 -8 -9 -9 -10 -10 -11 -11 -10 -10 -11 -11 -11 -11 -12 -12 -12 -12 -12 -12 -12 -11 -11 -11 -9 -9 -6 -4 -3 -2 -1 -1 0 1
-3 -3 -4 -4 -5 -5 -6 -7 -8 -8 -9 -9 -9 -10 -10 -10 -10 -10 -10 -10 -11 -11 -12 -12 -12 -12 -12 -12 -11 -11 -11 -11 -10 -9 -9 -8 -4 -3 -2 -1 -0 1 2
-3 -3 -4 -4 -5 -5 -6 -7 -8 -9 -9 -9 -9 -10 -10 -10 -10 -9 -10 -11 -11 -11 -12 -12 -12 -12 -12 -12 -12 -11 -11 -11 -11 -9 -8 -8 -5 -3 -2 -1 0 1 2
-3 -3 -4 -4 -5 -5 -6 -7 -8 -9 -9 -9 -9 -10 -10 -10 -10 -10 -11 -11 -12 -11 -12 -12 -12 -12 -12 -12 -12 -12 -12 -12 -12 -10 -8 -8 -6 -5 -2 -0 0 1 2
Wind_Speed
3 5 6 9 10 11 11 12 13 14 15 15 15 17 18 21 22 22 23 30 33 34 34 35 35 35 36 36 37 37 36 35 34 33 33 32 31 29 28 27 25 23 22
1 3 5 7 9 11 11 12 13 13 12 12 13 16 19 20 21 23 24 27 31 33 34 35 35 36 36 37 37 37 37 37 36 35 34 32 31 30 29 27 26 24 22
5 5 5 7 10 11 11 12 13 10 10 12 11 15 17 18 20 22 24 24 25 29 32 34 35 36 37 37 38 38 37 37 37 35 34 33 32 31 30 28 27 25 23
7 6 6 8 10 10 10 9 7 4 6 6 7 9 14 16 19 22 23 23 24 24 28 33 35 36 37 37 38 38 38 38 37 36 35 34 33 31 30 29 28 26 24
9 8 8 9 10 9 9 9 6 4 7 8 8 7 8 12 17 20 20 22 23 24 25 29 33 35 36 37 38 37 37 37 37 36 34 34 33 32 31 29 28 27 25
10 9 9 9 9 7 6 5 6 5 6 7 11 11 9 11 13 12 16 19 22 24 25 26 27 28 33 35 35 35 36 36 36 35 34 33 32 32 30 30 28 26 25
10 10 9 8 8 5 5 6 5 6 5 5 6 10 10 9 9 8 11 13 17 22 23 24 24 23 24 31 32 33 33 34 34 33 33 32 32 31 30 29 29 26 25
10 8 8 8 8 5 6 6 5 4 5 5 5 10 10 10 7 11 8 10 12 16 18 23 24 23 23 22 25 31 31 31 31 30 30 30 30 30 29 29 29 27 26
10 10 9 9 8 6 5 7 6 6 6 5 4 4 8 10 14 10 12 11 9 11 12 18 21 22 23 21 21 25 28 29 28 28 28 27 27 28 29 28 28 27 26
9 9 10 9 9 8 6 7 6 5 6 7 6 5 7 9 10 13 12 9 11 13 13 14 16 20 21 19 21 25 27 27 27 27 27 26 26 27 27 27 27 27 26
9 10 10 10 9 8 8 8 7 7 6 7 7 6 8 8 8 10 16 18 15 11 11 13 12 14 19 18 18 22 25 25 24 25 25 25 24 24 25 25 24 25 26
6 10 10 10 11 10 9 9 8 8 8 8 8 7 8 8 9 9 13 17 17 15 13 12 12 11 15 17 19 25 25 24 23 23 23 23 23 23 23 23 22 23 23
5 7 10 10 10 12 13 12 8 9 8 9 9 8 9 10 9 10 12 15 18 17 13 11 9 10 15 16 18 26 25 25 24 24 23 22 22 22 22 22 22 22 22
6 9 10 11 12 13 13 11 7 9 8 9 12 11 10 10 9 10 10 12 16 17 14 12 9 9 11 15 20 26 19 25 25 24 22 21 21 22 22 22 22 22 21
7 10 10 10 11 12 12 10 8 10 9 10 11 12 11 11 10 10 10 10 11 17 19 14 11 9 11 14 21 19 17 23 25 24 23 22 21 21 22 23 23 22 21
8 7 7 8 8 9 10 8 9 10 11 12 10 12 13 12 11 11 10 10 11 14 17 15 14 13 13 15 22 18 18 25 24 23 22 22 21 21 22 23 23 23 22
7 8 8 8 8 9 8 9 11 11 12 13 13 14 16 16 13 12 11 11 11 12 16 16 14 12 13 13 14 14 16 14 15 21 22 22 22 22 23 23 23 24 23
7 7 7 8 9 9 9 10 13 13 13 15 16 16 18 16 16 13 11 12 12 12 14 18 16 12 13 12 12 12 12 13 11 20 22 22 23 23 24 24 24 24 24
8 7 7 8 9 10 11 11 12 14 14 16 16 17 17 16 16 13 13 13 12 13 13 15 16 12 11 10 11 12 12 10 12 15 19 20 22 23 23 24 24 24 23
7 8 8 9 10 11 11 12 13 14 15 15 14 14 14 14 15 14 13 14 13 13 13 12 13 13 11 9 8 10 12 9 10 12 15 16 18 21 23 24 24 23 23
8 7 8 9 10 9 10 12 13 13 12 11 10 11 12 16 18 15 13 11 10 11 10 11 12 12 11 9 9 9 12 11 11 10 8 9 9 9 11 17 20 21 21
8 7 8 9 10 9 16 21 17 9 8 9 9 10 11 13 17 21 23 22 19 13 10 11 12 12 12 11 10 11 11 11 8 4 5 10 8 10 9 9 17 21 20
8 8 8 9 10 12 18 19 20 10 6 8 9 9 11 12 17 12 19 22 18 21 20 14 13 13 13 12 12 13 12 12 12 8 8 10 7 9 9 12 19 21 20
7 7 8 9 9 11 16 18 19 7 7 8 9 9 10 11 15 17 13 9 9 11 15 12 11 13 13 13 13 13 12 12 11 9 8 7 6 7 9 9 17 20 20
8 7 7 8 8 10 14 16 16 5 6 8 9 9 11 11 21 23 10 8 10 10 14 17 19 18 20 19 15 9 7 8 10 7 5 5 5 6 7 8 12 19 20
8 7 7 7 7 8 12 14 15 5 7 7 7 8 15 18 22 20 9 8 12 11 8 10 13 15 13 14 17 9 7 8 8 6 4 4 4 4 4 4 6 8 12
Wind_Direction
16 353 340 333 329 326 319 317 318 316 315 316 318 321 318 316 314 313 314 316 317 316 313 312 309 306 302 299 295 291 288 283 279 276 274 272 271 271 271 272 272 272 261
247 287 300 307 311 314 313 311 311 308 307 308 308 312 310 308 307 307 308 310 311 312 311 309 307 305 301 298 294 289 285 282 277 273 270 268 267 266 266 267 268 268 264
230 245 263 283 298 310 311 312 311 310 312 314 309 307 307 304 303 303 305 303 303 306 307 307 306 303 299 296 292 288 283 279 275 271 267 265 263 262 262 262 264 263 262
235 239 251 272 294 302 305 304 298 302 301 302 300 301 304 303 301 301 300 298 298 298 300 303 303 301 298 296 292 286 282 277 273 269 264 261 259 258 258 258 259 259 259
239 242 252 272 288 291 295 303 317 297 302 306 304 300 301 302 299 298 295 295 294 294 295 299 301 300 298 294 290 284 279 275 271 267 262 258 256 254 254 255 256 256 256
242 247 257 270 282 282 284 285 290 290 288 296 309 310 298 296 294 289 289 295 295 295 295 295 295 295 295 294 291 285 279 274 269 265 261 256 253 251 250 251 253 255 255
245 252 262 274 277 268 270 281 287 294 290 292 304 312 303 284 285 287 287 291 293 295 295 295 294 291 291 292 292 290 284 277 270 265 259 254 251 249 248 249 251 253 255
250 257 258 264 270 269 277 284 287 285 290 309 304 317 314 307 297 309 293 292 294 296 298 299 294 291 289 287 285 289 287 282 275 270 262 255 250 246 246 246 248 251 253
257 261 266 267 267 258 263 274 276 272 288 292 258 273 302 306 314 303 302 299 296 299 298 299 296 296 295 292 288 289 287 284 278 274 268 260 253 248 245 244 246 250 252
257 262 268 269 265 259 256 269 283 266 276 292 289 251 256 279 298 307 308 300 301 303 303 303 301 299 299 296 294 293 292 287 279 274 269 264 258 251 246 244 245 248 251
253 260 267 266 260 257 259 264 270 265 259 268 280 283 283 280 270 289 303 308 307 302 301 301 298 298 299 298 297 296 297 292 286 280 274 268 262 258 253 247 246 248 249
250 257 264 260 257 257 260 264 259 259 258 261 270 272 276 278 285 286 294 301 304 305 302 300 297 299 301 303 304 306 306 301 294 287 280 272 266 264 262 258 255 254 252
241 248 256 255 256 258 263 264 256 257 256 259 263 269 270 268 272 277 286 295 299 301 299 295 293 299 303 307 307 308 309 306 301 293 286 278 270 267 267 266 263 261 258
237 247 251 252 255 260 267 264 258 260 262 258 269 269 271 271 267 266 272 287 297 300 299 295 296 291 299 304 304 309 309 307 301 296 292 286 276 269 268 267 267 267 267
242 247 246 249 256 260 262 261 261 262 264 264 267 268 269 271 267 263 263 266 279 295 299 301 300 293 298 302 303 306 306 303 300 297 292 287 279 271 265 263 264 266 270
241 247 248 250 255 259 260 258 262 265 264 268 269 269 270 271 268 266 263 263 264 275 287 293 295 295 297 302 304 308 305 303 301 297 290 284 277 271 265 261 260 262 264
235 242 247 252 257 260 259 261 265 269 268 273 274 272 273 273 272 268 265 265 267 270 279 288 289 291 290 293 297 297 297 295 294 294 288 282 276 271 266 262 258 257 258
234 239 247 256 262 266 263 264 272 277 273 276 277 277 277 277 272 268 265 265 267 268 273 284 290 291 289 290 291 293 299 298 294 290 286 280 275 270 264 259 256 253 253
236 243 250 259 265 269 270 270 270 274 274 274 277 279 280 278 274 269 263 264 267 272 271 279 287 290 288 287 290 293 292 288 290 289 287 280 272 267 264 257 254 250 247
237 249 254 260 266 270 272 274 274 272 274 276 276 277 278 276 274 268 266 263 266 272 274 279 287 290 288 284 283 294 298 292 290 291 284 278 272 267 263 258 253 251 245
243 249 260 267 270 274 272 269 268 270 275 280 279 278 282 289 289 285 279 272 268 274 279 285 288 290 290 293 291 291 293 295 291 276 278 279 278 272 266 261 255 252 244
243 252 259 266 273 278 289 296 297 287 287 285 287 289 292 294 295 299 299 296 293 293 293 287 290 287 287 286 286 285 286 289 292 281 305 296 283 272 261 251 249 248 243
242 252 259 263 269 279 295 300 305 310 291 285 286 293 302 303 306 291 288 291 293 296 297 294 288 285 286 283 279 278 273 270 268 273 293 288 267 264 259 250 247 243 242
238 250 259 264 269 281 299 305 309 314 289 281 281 284 288 289 294 295 288 278 266 275 284 286 276 277 277 275 268 267 269 271 270 265 251 267 271 264 261 250 250 243 239
237 245 253 260 266 282 301 305 311 291 288 283 283 287 297 292 301 316 327 303 296 290 298 302 304 304 304 306 302 293 281 277 282 276 230 242 269 273 261 248 241 238 234
235 244 253 254 263 274 296 307 312 290 292 290 289 293 311 315 319 332 332 311 307 304 303 305 307 306 301 298 300 293 280 273 274 278 243 252 271 283 278 243 223 224 225
Height
1561 1557 1554 1550 1546 1542 1538 1534 1531 1528 1524 1521 1518 1515 1512 1509 1505 1502 1497 1493 1489 1484 1481 1478 1475 1472 1469 1466 1465 1464 1464 1464 1465 1466 1466 1468 1469 1472 1475 1479 1483 1487 1491
1556 1553 1549 1545 1542 1538 1534 1530 1526 1523 1519 1516 1513 1510 1507 1504 1500 1496 1492 1487 1483 1478 1474 1470 1467 1464 1461 1458 1456 1455 1454 1455 1456 1457 1458 1459 1461 1464 1466 1470 1474 1479 1483
1551 1548 1545 1541 1538 1534 1530 1526 1522 1519 1515 1511 1508 1505 1501 1498 1495 1491 1486 1482 1477 1472 1467 1463 1459 1455 1452 1449 1447 1445 1445 1445 1446 1448 1449 1451 1453 1455 1458 1461 1466 1470 1474
1547 1544 1541 1537 1534 1530 1526 1522 1518 1514 1510 1506 1502 1499 1496 1492 1489 1485 1480 1476 1471 1466 1460 1455 1451 1447 1443 1440 1437 1435 1435 1435 1436 1438 1440 1442 1444 1446 1449 1453 1457 1461 1466
1543 1540 1537 1533 1529 1526 1522 1518 1514 1510 1505 1501 1497 1493 1490 1487 1483 1479 1474 1470 1465 1460 1454 1448 1443 1438 1434 1430 1427 1426 1425 1425 1426 1428 1430 1433 1435 1438 1441 1444 1448 1453 1458
1539 1536 1532 1529 1525 1521 1518 1514 1510 1506 1502 1498 1493 1488 1484 1481 1477 1473 1469 1464 1459 1453 1448 1442 1436 1429 1425 1421 1418 1416 1415 1415 1416 1418 1420 1423 1426 1429 1432 1436 1440 1444 1449
1534 1531 1528 1524 1521 1517 1513 1509 1505 1501 1498 1494 1488 1482 1477 1475 1471 1467 1463 1458 1452 1447 1441 1435 1429 1423 1417 1412 1409 1406 1405 1406 1407 1408 1411 1414 1417 1420 1423 1427 1431 1435 1440
1530 1527 1523 1520 1516 1513 1509 1505 1501 1497 1493 1491 1487 1479 1472 1468 1464 1461 1456 1451 1446 1441 1435 1429 1423 1417 1411 1405 1401 1398 1396 1396 1397 1399 1401 1404 1408 1411 1415 1418 1422 1427 1431
1525 1522 1518 1515 1511 1508 1504 1501 1497 1493 1489 1486 1484 1481 1474 1464 1458 1452 1448 1444 1440 1435 1429 1423 1417 1411 1405 1400 1395 1391 1390 1389 1389 1390 1392 1395 1399 1403 1406 1410 1414 1418 1423
1520 1517 1514 1510 1507 1503 1500 1496 1493 1489 1485 1481 1478 1476 1472 1466 1458 1447 1441 1437 1433 1429 1423 1417 1411 1405 1400 1394 1389 1386 1384 1383 1383 1384 1385 1387 1390 1394 1398 1402 1406 1410 1415
1515 1512 1509 1505 1502 1498 1495 1491 1488 1484 1480 1476 1472 1469 1465 1461 1456 1450 1438 1429 1424 1421 1417 1412 1406 1400 1395 1389 1384 1381 1379 1378 1377 1377 1378 1380 1382 1386 1390 1394 1398 1403 1407
1510 1507 1503 1500 1496 1493 1489 1486 1482 1478 1474 1471 1467 1463 1459 1455 1450 1445 1437 1427 1419 1412 1409 1405 1401 1396 1391 1385 1380 1376 1373 1372 1371 1371 1372 1373 1375 1377 1381 1385 1389 1394 1399
1504 1501 1498 1494 1491 1487 1483 1480 1476 1472 1468 1464 1460 1456 1452 1448 1444 1439 1433 1424 1415 1407 1402 1398 1395 1391 1386 1381 1375 1371 1368 1366 1364 1364 1365 1366 1368 1370 1372 1376 1380 1386 1391
1498 1495 1492 1488 1485 1481 1477 1474 1470 1465 1461 1457 1453 1449 1445 1441 1437 1433 1428 1421 1410 1401 1396 1392 1388 1385 1380 1375 1370 1367 1363 1360 1359 1358 1358 1359 1361 1363 1365 1368 1372 1376 1382
1492 1489 1485 1482 1478 1475 1471 1467 1463 1459 1455 1450 1446 1442 1437 1433 1429 1425 1421 1416 1410 1399 1389 1385 1381 1377 1374 1370 1365 1361 1357 1354 1353 1352 1352 1353 1355 1357 1360 1362 1365 1369 1373
1486 1483 1479 1476 1472 1469 1465 1461 1456 1452 1448 1443 1439 1434 1430 1425 1420 1416 1413 1409 1404 1397 1386 1379 1375 1371 1368 1364 1360 1356 1351 1349 1347 1346 1347 1348 1349 1351 1353 1356 1359 1362 1366
1480 1477 1473 1469 1466 1462 1458 1454 1450 1445 1441 1436 1432 1427 1422 1417 1412 1407 1404 1400 1396 1391 1382 1374 1370 1365 1361 1357 1352 1349 1345 1342 1340 1339 1340 1341 1343 1345 1347 1349 1352 1356 1359
1473 1470 1467 1463 1460 1456 1452 1447 1443 1439 1434 1429 1424 1419 1413 1408 1403 1399 1395 1392 1388 1383 1377 1368 1363 1359 1354 1350 1346 1342 1338 1336 1333 1332 1332 1333 1335 1337 1339 1342 1345 1349 1353
1467 1464 1461 1457 1453 1449 1445 1441 1436 1432 1428 1423 1417 1412 1406 1401 1395 1391 1387 1383 1380 1375 1371 1364 1356 1352 1348 1344 1339 1335 1332 1328 1326 1325 1324 1325 1327 1329 1331 1334 1338 1342 1345
1461 1458 1455 1451 1447 1443 1438 1434 1430 1426 1421 1416 1411 1406 1400 1394 1388 1384 1380 1376 1372 1368 1363 1357 1351 1346 1341 1337 1334 1329 1324 1321 1318 1317 1316 1317 1318 1320 1323 1326 1329 1333 1338
1455 1452 1449 1446 1441 1437 1432 1427 1424 1420 1416 1410 1405 1400 1394 1388 1383 1379 1374 1370 1366 1361 1356 1350 1345 1339 1335 1331 1328 1324 1319 1314 1311 1310 1309 1309 1310 1311 1313 1317 1321 1325 1330
1449 1446 1443 1439 1435 1431 1426 1422 1420 1416 1411 1405 1400 1394 1388 1382 1377 1373 1368 1364 1361 1355 1350 1344 1338 1333 1328 1325 1321 1318 1314 1310 1306 1305 1303 1302 1303 1303 1305 1309 1313 1318 1323
1443 1440 1437 1434 1429 1425 1421 1417 1414 1411 1406 1400 1394 1388 1382 1377 1372 1366 1361 1357 1353 1349 1344 1339 1332 1327 1322 1318 1315 1311 1308 1305 1301 1299 1299 1294 1296 1296 1298 1302 1306 1311 1316
1436 1434 1432 1428 1423 1419 1415 1411 1408 1405 1400 1395 1390 1384 1378 1372 1366 1360 1355 1350 1345 1341 1336 1331 1326 1320 1315 1311 1309 1305 1302 1298 1295 1293 1293 1289 1288 1290 1293 1295 1299 1304 1309
1430 1428 1426 1422 1418 1414 1410 1406 1403 1399 1395 1390 1385 1379 1374 1368 1362 1358 1351 1345 1339 1334 1329 1324 1319 1313 1308 1305 1302 1299 1296 1293 1289 1287 1288 1286 1284 1285 1286 1288 1293 1297 1303
1424 1423 1420 1417 1413 1409 1405 1401 1398 1394 1390 1385 1380 1375 1370 1364 1360 1354 1348 1341 1334 1328 1322 1316 1311 1306 1301 1297 1294 1292 1289 1287 1285 1282 1281 1282 1281 1283 1283 1283 1287 1292 1297